Location: Beddau
(51.5575°N, 3.3561°W)
Time: 01:29:44
(UTC+00:00)

Cosmos 2242 Rocket - Pass Details

Date: 03 March 2021
Orbit: 617 x 652 km, 82.5° (Epoch: 13 April)

Event Time Altitude Azimuth Distance (km) Brightness Sun altitude
Rises 19:03:52 0° 352° (N) 2,967 7.2 -11.1°
Reaches altitude 10° 19:06:11 10° 356° (N) 2,047 6.3 -11.5°
Maximum altitude 19:10:39 57° 76° (ENE) 755 3.7 -12.1°
Drops below altitude 10° 19:15:03 10° 155° (SSE) 2,009 5.9 -12.8°
Sets 19:17:17 0° 160° (SSE) 2,906 6.7 -13.2°
